Lexington Weather

Lexington, Massachusetts, USA

48°F
9/19/2020 9:06am 
  • Lexington Conditions: Clear
  • Temperature: 47.7°F / 8.7°CWarmer 3.8°F than last hour.
  • Dew Point: 37.2°FIncreased 1.1°Fsince last hour.
  • Relative Humidity: 67%Decreased 7.0% since last hour.
  • Wind: Wind from ENE ENE 1 mph, 10-min avg: 1 mph, gust: 4 mph
  • Barometer: 30.26 inRising 0.02  inHg/hr Rising Slowly
  • Visibility: 10 miles
  • Rain Today: 0.00 in
  •   
Southeast Middlesex County - Special Weather Statement
 - SEE ALL NEARBY ALERTS -

Regional Weather Roundup
for Boston / Norton, MA

        
000
ASUS41 KBOX 182004
RWRBOX

REGIONAL WEATHER ROUNDUP
NATIONAL WEATHER SERVICE BOSTON/NORTON MA
400 PM EDT FRI SEP 18 2020

NOTE:  "FAIR" INDICATES FEW OR NO CLOUDS BELOW 12,000 FEET WITH NO 
SIGNIFICANT WEATHER AND/OR OBSTRUCTIONS TO VISIBILITY.

MAZALL-182100-
EASTERN MASSACHUSETTS
  
CITY           SKY/WX    TMP DP  RH WIND       PRES   REMARKS
BOSTON         CLOUDY    64  45  49 NE13      29.96S                  
BEVERLY        MOSUNNY   64  44  48 NE9       29.96S                  
LAWRENCE       CLOUDY    62  45  53 N10       29.99S                  
BEDFORD        MOSUNNY   66  46  48 NW15G21   29.96S                  
BLUE HILL        N/A     62  43  49 NE10      29.95S                  
NORWOOD        MOSUNNY   66  45  46 NE10      29.95F                  
MARSHFIELD     PTSUNNY   63  48  59 N9G17     29.95F                  
PLYMOUTH       PTSUNNY   61  47  59 NE16G24   29.95R                  
TAUNTON        PTSUNNY   66  45  46 NE9G18    29.95R                  
NEW BEDFORD    PTSUNNY   65  47  52 N13G23    29.93R                  
$$

MAZALL-182100-
CAPE COD AND THE ISLANDS
  
CITY           SKY/WX    TMP DP  RH WIND       PRES   REMARKS
FALMOUTH       PTSUNNY   59  52  77 N16G30    29.92S                  
HYANNIS        CLOUDY    59  53  80 N20G31    29.90S                  
CHATHAM        CLOUDY    60  54  80 N9G22     29.92R                  
PROVINCETOWN   PTSUNNY   60  51  72 N15G22    29.95R                  
NANTUCKET      CLOUDY    61  56  83 N23G32    29.89S                  
MARTHAS VNYRD  CLOUDY    61  52  72 N16G28    29.92R                  
$$
 
MAZALL-182100-
CENTRAL AND WESTERN MASSACHUSETTS
  
CITY           SKY/WX    TMP DP  RH WIND       PRES   REMARKS
WORCESTER      CLOUDY    60  47  61 N12       29.98S                  
FITCHBURG      CLOUDY    63  47  55 N8        29.98F                  
ORANGE         PTSUNNY   66  45  46 N10G17    29.98F                  
SPRINGFIELD    MOSUNNY   66  47  50 NE14      29.96F                  
WESTFIELD      MOSUNNY   67  48  50 N8        29.97F                  
NORTH ADAMS    SUNNY     62  37  39 NW12G18   30.03R                  
PITTSFIELD     SUNNY     62  34  35 N10G22    30.01R                  
$$
 
RIZALL-182100-
RHODE ISLAND
  
CITY           SKY/WX    TMP DP  RH WIND       PRES   REMARKS
PROVIDENCE     PTSUNNY   67  48  50 NE14G22   29.95R                  
NEWPORT        PTSUNNY   66  47  50 NE17      29.93R                  
BLOCK ISLAND   PTSUNNY   63  50  62 NE17      29.93R                  
SMITHFIELD     MOSUNNY   64  48  56 N13       29.96R                  
WESTERLY       PTSUNNY   68  48  48 N12       29.93S                  
$$
 
CTZALL-182100-
CONNECTICUT
  
CITY           SKY/WX    TMP DP  RH WIND       PRES   REMARKS
BRADLEY INTL   MOSUNNY   67  48  50 N14       29.96F                  
HARTFORD       MOSUNNY   67  48  50 N12G20    29.96F                  
BRIDGEPORT     MOSUNNY   70  51  51 NE12      29.95R                  
DANBURY        SUNNY     66  45  46 N17G23    29.98R                  
GROTON         PTSUNNY   69  50  50 N16       29.93R                  
NEW HAVEN      MOSUNNY   70  52  52 N15       29.95R                  
CHESTER        NOT AVBL                                               
MERIDEN        MOSUNNY   68  48  48 N8G18     29.96S                  
WILLIMANTIC    CLOUDY    65  50  58 N10G18    29.96R                  
OXFORD         PTSUNNY   64  51  62 N12       29.97S                  
$$

MEZ002-015-021-024-NHZ003-005-008-011-012-014-VTZ005-008-182100-
NORTHERN NEW ENGLAND
  
CITY           SKY/WX    TMP DP  RH WIND       PRES   REMARKS
PORTLAND ME    MOSUNNY   68  37  32 NE10      29.97F                  
BANGOR ME      MOSUNNY   64  38  38 N13G21    29.98F                  
CONCORD NH     MOSUNNY   68  31  25 NW13G20   29.97F                  
MANCHESTER NH  PTSUNNY   65  46  50 VRB5      29.95F                  
NASHUA NH      CLOUDY    63  50  62 NW8       29.98F                  
PORTSMOUTH NH  PTSUNNY   65  38  38 N3        29.96S                  
JAFFREY NH     MOSUNNY   63  37  38 NW10G17   29.99F                  
KEENE NH       MOSUNNY   65  32  29 N14G21    29.99S                  
BURLINGTON VT  MOSUNNY   58  29  33 N17       30.14R                  
MT. WASHINGTON PTSUNNY   34  21  60 NW28G33     N/A  WCI  20          
$$

NYZ052-076-182100-
EASTERN NEW YORK
  
CITY           SKY/WX    TMP DP  RH WIND       PRES   REMARKS
ALBANY         MOSUNNY   62  35  36 N12       30.04S                  
NEW YORK CITY  PTSUNNY   71  48  43 N15G21    29.95S                  
$$
 
ANZALL-182100-
MARINE OBSERVATIONS
  
STATION/POSITION TIME  TEMP    WIND        PRES    VSBY  WAVE
                       AIR SEA DIR/SP/G                  HT/PER
                 (UTC) (F)     (DEG/KT/KT) (MB)    (MI)  (FT/S)
BOSTON BUOY      1950   59 63   30/ 17/ 19 1013.3S         6/ 6
BUZZARDS BAY     1900           20/ 22/ 24 1013.5S
NANTUCKET SOUND  1950      69   10/ 23/ 29   N/A           4/ 4
MASS BAY-STELLWA 1904   58      40/ 17/ 21 1012.3F  1 7/8  6/ 6
ISLE OF SHOALS   1900   58      30/ 13/ 14 1014.5F
S OF BLOCK IS    1926      69                N/A           6/ 6
$$

......................KEY.........................
  SKY/WX - SKY CONDITION/PRESENT WEATHER
  TMP    - TEMPERATURE IN FAHRENHEIT
  DWPT   - DEWPOINT IN FAHRENHEIT
  RH     - RELATIVE HUMIDITY IN PERCENT
  WIND   - DIRECTION AND SPEED IN MPH
  PRES   - MEAN SEA LEVEL PRESSURE IN INCHES OF HG
  WCI    - WIND CHILL INDEX
  VSB    - VISIBILITY IN MILES
  HX     - HEAT INDEX
  TC     - TEMPERATURE IN CELSIUS
  VRB    - VARIABLE WIND DIRECTION
  N/A    - NOT AVAILABLE
  
      

Other recent Regional Weather Roundups

Sat Sep 19, 8:04am

Sat Sep 19, 7:04am

Sat Sep 19, 6:04am

Sat Sep 19, 5:04am

Sat Sep 19, 4:04am

Sat Sep 19, 3:04am

Sat Sep 19, 2:04am

Sat Sep 19, 1:04am

Sat Sep 19, 12:04am

Fri Sep 18, 11:05pm

Fri Sep 18, 10:04pm

Fri Sep 18, 9:04pm

Fri Sep 18, 8:04pm

Fri Sep 18, 7:04pm

Fri Sep 18, 6:04pm

Fri Sep 18, 5:05pm

Fri Sep 18, 3:05pm

Fri Sep 18, 2:04pm

Fri Sep 18, 1:04pm

Fri Sep 18, 12:04pm

Fri Sep 18, 11:05am

Fri Sep 18, 10:05am

Fri Sep 18, 9:04am

Fri Sep 18, 8:04am

Fri Sep 18, 7:04am

Fri Sep 18, 6:04am

Fri Sep 18, 5:04am

Fri Sep 18, 4:04am

Fri Sep 18, 3:04am

Fri Sep 18, 2:04am

Fri Sep 18, 1:04am

Fri Sep 18, 12:04am

Thu Sep 17, 11:05pm

Thu Sep 17, 10:04pm

Thu Sep 17, 9:04pm

Thu Sep 17, 8:05pm

Thu Sep 17, 7:04pm

Thu Sep 17, 6:04pm

Thu Sep 17, 5:04pm

Thu Sep 17, 4:04pm

Thu Sep 17, 3:05pm

Thu Sep 17, 2:04pm

Thu Sep 17, 1:04pm

Thu Sep 17, 12:04pm

Thu Sep 17, 11:04am

Thu Sep 17, 10:04am

Thu Sep 17, 9:04am

Thu Sep 17, 8:04am

Thu Sep 17, 7:04am

Thu Sep 17, 6:04am

Thu Sep 17, 5:04am

Thu Sep 17, 4:04am

Thu Sep 17, 3:04am

Thu Sep 17, 2:05am

Thu Sep 17, 1:05am

Thu Sep 17, 12:04am

Wed Sep 16, 11:04pm

Wed Sep 16, 10:04pm

Wed Sep 16, 9:04pm

Wed Sep 16, 8:05pm

Wed Sep 16, 7:04pm

Wed Sep 16, 6:04pm

Wed Sep 16, 5:04pm

Wed Sep 16, 4:04pm

Wed Sep 16, 3:04pm

Wed Sep 16, 2:04pm

Wed Sep 16, 1:04pm

Wed Sep 16, 12:04pm

Wed Sep 16, 11:04am

Wed Sep 16, 10:04am

Wed Sep 16, 9:04am

Wed Sep 16, 8:04am

Wed Sep 16, 7:04am

Wed Sep 16, 6:04am

Wed Sep 16, 5:04am

Wed Sep 16, 4:04am

Wed Sep 16, 3:04am

Wed Sep 16, 2:04am

Wed Sep 16, 1:04am

Wed Sep 16, 12:05am

Tue Sep 15, 11:04pm

Tue Sep 15, 10:04pm

Tue Sep 15, 9:04pm

Tue Sep 15, 8:04pm

Tue Sep 15, 7:04pm

Tue Sep 15, 6:04pm

Tue Sep 15, 5:04pm

Tue Sep 15, 4:05pm

Tue Sep 15, 3:04pm

Tue Sep 15, 2:04pm

Tue Sep 15, 1:04pm

Tue Sep 15, 12:04pm

Tue Sep 15, 11:04am

Tue Sep 15, 10:04am

Tue Sep 15, 9:04am

Tue Sep 15, 8:04am

Tue Sep 15, 7:04am

Tue Sep 15, 6:04am

Tue Sep 15, 5:04am

Tue Sep 15, 4:04am

Tue Sep 15, 3:04am

Tue Sep 15, 2:04am

Tue Sep 15, 1:04am

Tue Sep 15, 12:05am

Mon Sep 14, 11:04pm

Mon Sep 14, 10:04pm

Mon Sep 14, 9:04pm

Mon Sep 14, 8:04pm

Mon Sep 14, 7:04pm

Mon Sep 14, 6:04pm

Mon Sep 14, 5:04pm

Mon Sep 14, 4:05pm

Mon Sep 14, 3:04pm

Mon Sep 14, 2:05pm

Mon Sep 14, 1:04pm

Mon Sep 14, 12:04pm

Mon Sep 14, 11:04am

Mon Sep 14, 10:05am

Mon Sep 14, 9:04am

Mon Sep 14, 8:04am

Mon Sep 14, 7:04am

Mon Sep 14, 6:04am

Mon Sep 14, 5:04am

Mon Sep 14, 4:04am

Mon Sep 14, 3:04am

Mon Sep 14, 2:04am

Mon Sep 14, 1:04am

Mon Sep 14, 12:04am

Sun Sep 13, 11:05pm

Sun Sep 13, 10:04pm

Sun Sep 13, 9:04pm

Sun Sep 13, 8:04pm

Sun Sep 13, 7:05pm

Sun Sep 13, 6:05pm

Sun Sep 13, 5:05pm

Sun Sep 13, 4:04pm

Sun Sep 13, 3:04pm

Sun Sep 13, 2:04pm

Sun Sep 13, 1:04pm

Sun Sep 13, 12:04pm

Sun Sep 13, 11:05am

Sun Sep 13, 10:04am

Sun Sep 13, 9:04am

Sun Sep 13, 8:04am

Sun Sep 13, 7:04am

Sun Sep 13, 6:04am

Sun Sep 13, 5:04am

Sun Sep 13, 4:04am

Sun Sep 13, 3:04am

Sun Sep 13, 2:04am

Sun Sep 13, 1:04am

Sun Sep 13, 12:04am

Sat Sep 12, 11:04pm

Sat Sep 12, 10:04pm

Sat Sep 12, 9:04pm

Sat Sep 12, 8:04pm

Sat Sep 12, 7:05pm

Sat Sep 12, 6:04pm

Sat Sep 12, 5:04pm

Sat Sep 12, 4:05pm

Sat Sep 12, 3:04pm

Sat Sep 12, 2:04pm

Sat Sep 12, 1:05pm

Sat Sep 12, 12:04pm

Sat Sep 12, 11:04am

Sat Sep 12, 10:04am

Sat Sep 12, 9:04am

Meta data:

ID: bdd0e69f-f01e-4cbe-9359-88ef47484317
Link: https://api.weather.gov/products/bdd0e69f-f01e-4cbe-9359-88ef47484317